Total_Precipitation_Accumulation
0.58 0.74 0.84 0.79 0.80 0.85 0.76 0.71 0.67 0.53 0.44 0.46 0.44 0.42 0.44 0.41 0.37 0.39 0.41 0.40 0.43 0.37 0.32 0.24 0.21 0.21 0.29 0.32 0.32 0.35 0.40 0.41 0.38 0.33 0.38 0.42 0.42 0.51 0.60 0.67 0.73 0.78 0.81 0.87
0.58 0.60 0.54 0.56 0.63 0.75 0.76 0.76 0.72 0.63 0.47 0.44 0.44 0.45 0.42 0.39 0.36 0.31 0.29 0.27 0.33 0.31 0.29 0.24 0.21 0.19 0.18 0.20 0.24 0.31 0.32 0.31 0.28 0.25 0.30 0.38 0.44 0.52 0.66 0.81 0.92 0.96 0.94 0.99
0.55 0.50 0.43 0.46 0.54 0.67 0.68 0.64 0.58 0.65 0.58 0.52 0.56 0.59 0.48 0.42 0.39 0.31 0.25 0.26 0.29 0.28 0.24 0.23 0.22 0.21 0.17 0.18 0.21 0.25 0.27 0.29 0.27 0.32 0.50 0.76 1.01 1.10 1.13 1.15 1.28 1.37 1.32 1.29
0.69 0.47 0.39 0.42 0.47 0.53 0.72 0.52 0.44 0.55 0.69 0.66 0.55 0.63 0.43 0.41 0.46 0.36 0.28 0.26 0.28 0.29 0.26 0.22 0.20 0.21 0.16 0.18 0.22 0.24 0.26 0.32 0.34 0.49 0.80 1.18 1.49 1.59 1.58 1.70 1.75 1.80 1.73 1.59
0.57 0.40 0.38 0.42 0.38 0.45 0.69 0.56 0.55 0.59 0.62 0.58 0.39 0.41 0.34 0.35 0.46 0.39 0.35 0.33 0.34 0.31 0.28 0.24 0.22 0.21 0.21 0.25 0.30 0.33 0.39 0.51 0.67 0.81 0.98 1.27 1.44 1.52 1.66 1.82 1.99 2.13 2.22 2.15
0.41 0.32 0.35 0.36 0.35 0.39 0.50 0.61 0.72 0.71 0.68 0.65 0.31 0.29 0.33 0.34 0.34 0.35 0.35 0.37 0.36 0.31 0.26 0.25 0.27 0.29 0.32 0.39 0.45 0.48 0.59 0.69 0.76 0.87 1.00 1.14 1.20 1.32 1.52 1.67 1.86 2.04 2.14 2.13
0.41 0.36 0.31 0.29 0.42 0.45 0.48 0.69 0.98 1.03 0.95 0.67 0.26 0.25 0.32 0.25 0.23 0.25 0.27 0.26 0.27 0.28 0.28 0.28 0.27 0.34 0.39 0.47 0.53 0.61 0.69 0.79 0.84 0.90 0.99 1.06 1.09 1.20 1.34 1.39 1.45 1.49 1.51 1.53
0.40 0.41 0.28 0.24 0.31 0.38 0.39 0.49 0.81 0.96 0.77 0.53 0.29 0.36 0.35 0.22 0.17 0.14 0.16 0.19 0.25 0.33 0.35 0.34 0.32 0.40 0.48 0.57 0.69 0.77 0.83 0.86 0.90 0.98 1.05 1.03 1.11 1.22 1.30 1.23 1.18 1.22 1.26 1.32
0.34 0.32 0.19 0.20 0.21 0.24 0.37 0.39 0.45 0.55 0.43 0.45 0.34 0.32 0.25 0.14 0.13 0.12 0.17 0.25 0.34 0.43 0.45 0.46 0.46 0.51 0.58 0.67 0.77 0.84 0.91 0.96 1.01 1.03 1.10 1.23 1.26 1.25 1.21 1.09 1.02 1.05 1.01 1.01
0.26 0.31 0.24 0.22 0.24 0.26 0.31 0.40 0.49 0.55 0.60 0.57 0.39 0.34 0.29 0.19 0.19 0.22 0.28 0.36 0.49 0.60 0.63 0.63 0.67 0.70 0.73 0.76 0.83 0.89 0.98 1.09 1.07 1.06 1.16 1.35 1.31 1.06 0.87 0.76 0.80 0.83 0.86 0.90
0.18 0.29 0.31 0.27 0.24 0.27 0.31 0.31 0.39 0.48 0.48 0.67 0.79 0.77 0.62 0.57 0.46 0.50 0.54 0.62 0.78 0.83 0.84 0.82 0.85 0.88 0.84 0.85 0.91 0.92 0.98 1.14 1.16 1.06 1.15 1.18 0.99 0.73 0.61 0.59 0.56 0.52 0.53 0.59
0.15 0.25 0.30 0.23 0.17 0.17 0.25 0.25 0.27 0.47 0.50 0.55 0.87 0.92 0.79 0.80 0.78 0.88 0.96 1.12 1.06 1.01 1.02 0.93 0.86 0.86 0.77 0.74 0.82 0.88 1.00 1.08 1.02 0.97 0.93 0.76 0.59 0.48 0.43 0.39 0.34 0.30 0.28 0.30
0.19 0.27 0.37 0.36 0.31 0.21 0.20 0.18 0.18 0.27 0.45 0.55 0.88 0.93 0.71 0.79 0.90 1.07 1.17 1.18 0.99 0.84 0.75 0.70 0.67 0.60 0.56 0.58 0.63 0.67 0.79 0.87 0.70 0.62 0.61 0.52 0.43 0.39 0.34 0.29 0.27 0.25 0.24 0.24
0.21 0.24 0.32 0.38 0.32 0.19 0.17 0.15 0.15 0.23 0.42 0.48 0.62 0.68 0.61 0.72 0.88 0.99 1.03 0.91 0.68 0.54 0.49 0.45 0.37 0.33 0.36 0.39 0.40 0.38 0.41 0.51 0.46 0.40 0.39 0.38 0.33 0.32 0.30 0.29 0.31 0.26 0.23 0.23
0.22 0.22 0.18 0.17 0.13 0.12 0.11 0.12 0.14 0.18 0.25 0.39 0.47 0.47 0.48 0.50 0.54 0.56 0.60 0.57 0.46 0.37 0.30 0.27 0.26 0.24 0.28 0.29 0.28 0.27 0.25 0.28 0.30 0.28 0.28 0.32 0.32 0.29 0.26 0.27 0.26 0.24 0.22 0.19
0.22 0.21 0.14 0.13 0.09 0.09 0.08 0.08 0.11 0.14 0.19 0.27 0.28 0.28 0.26 0.22 0.19 0.18 0.22 0.26 0.24 0.21 0.18 0.19 0.19 0.19 0.22 0.22 0.21 0.21 0.20 0.20 0.20 0.18 0.18 0.23 0.27 0.24 0.24 0.23 0.22 0.20 0.20 0.18
0.23 0.23 0.21 0.15 0.09 0.12 0.11 0.06 0.09 0.13 0.13 0.16 0.20 0.23 0.23 0.17 0.11 0.09 0.10 0.11 0.12 0.14 0.15 0.14 0.14 0.19 0.22 0.21 0.21 0.21 0.21 0.19 0.17 0.17 0.19 0.23 0.22 0.17 0.16 0.16 0.14 0.11 0.13 0.14
0.20 0.24 0.30 0.23 0.20 0.22 0.11 0.05 0.05 0.07 0.07 0.11 0.13 0.14 0.15 0.12 0.11 0.09 0.08 0.08 0.09 0.10 0.12 0.13 0.13 0.14 0.19 0.20 0.21 0.22 0.22 0.21 0.18 0.17 0.18 0.21 0.20 0.17 0.13 0.14 0.13 0.09 0.10 0.11
0.17 0.24 0.36 0.33 0.28 0.15 0.08 0.07 0.06 0.05 0.06 0.08 0.07 0.06 0.05 0.06 0.09 0.08 0.06 0.06 0.07 0.08 0.08 0.10 0.12 0.14 0.15 0.16 0.19 0.20 0.19 0.21 0.20 0.19 0.18 0.18 0.19 0.18 0.16 0.13 0.12 0.11 0.13 0.14
0.22 0.25 0.38 0.38 0.34 0.21 0.11 0.06 0.05 0.05 0.09 0.09 0.07 0.06 0.05 0.06 0.09 0.07 0.06 0.05 0.05 0.07 0.07 0.08 0.08 0.11 0.12 0.14 0.18 0.19 0.20 0.17 0.16 0.17 0.18 0.19 0.18 0.16 0.16 0.14 0.14 0.14 0.16 0.17
0.28 0.31 0.33 0.33 0.31 0.17 0.07 0.05 0.06 0.11 0.11 0.09 0.08 0.07 0.07 0.07 0.07 0.06 0.05 0.03 0.05 0.06 0.06 0.06 0.08 0.09 0.10 0.14 0.17 0.22 0.23 0.15 0.14 0.19 0.23 0.24 0.22 0.20 0.22 0.22 0.18 0.17 0.17 0.19
0.30 0.32 0.30 0.30 0.30 0.17 0.07 0.07 0.10 0.11 0.08 0.06 0.06 0.06 0.07 0.06 0.05 0.05 0.05 0.04 0.05 0.06 0.07 0.06 0.07 0.08 0.09 0.13 0.17 0.21 0.25 0.21 0.18 0.21 0.24 0.28 0.28 0.27 0.27 0.27 0.24 0.22 0.22 0.23
0.28 0.29 0.28 0.22 0.16 0.09 0.08 0.09 0.10 0.09 0.08 0.07 0.06 0.06 0.06 0.06 0.05 0.05 0.05 0.04 0.04 0.05 0.05 0.06 0.07 0.07 0.08 0.12 0.15 0.18 0.21 0.23 0.22 0.25 0.26 0.28 0.30 0.29 0.28 0.27 0.25 0.22 0.20 0.20
0.24 0.22 0.24 0.19 0.10 0.09 0.10 0.10 0.10 0.09 0.07 0.05 0.05 0.06 0.06 0.06 0.06 0.06 0.05 0.04 0.04 0.04 0.04 0.05 0.06 0.06 0.07 0.11 0.15 0.22 0.23 0.22 0.26 0.27 0.28 0.28 0.27 0.27 0.27 0.27 0.26 0.23 0.21 0.19
0.28 0.27 0.24 0.21 0.14 0.13 0.13 0.11 0.10 0.10 0.07 0.04 0.03 0.04 0.05 0.05 0.05 0.07 0.07 0.05 0.04 0.04 0.05 0.06 0.06 0.08 0.09 0.12 0.15 0.18 0.21 0.21 0.24 0.26 0.27 0.27 0.25 0.23 0.23 0.23 0.24 0.25 0.24 0.24
0.26 0.30 0.30 0.26 0.18 0.17 0.16 0.12 0.09 0.08 0.07 0.05 0.04 0.04 0.04 0.05 0.07 0.09 0.08 0.06 0.05 0.05 0.05 0.08 0.09 0.09 0.10 0.11 0.12 0.15 0.18 0.19 0.20 0.23 0.24 0.24 0.25 0.23 0.21 0.22 0.24 0.30 0.33 0.34